Regional Weather Roundup
Issued by NWS

Home | Current Version | Previous Version | Graphics & Text | Print | Product List | Glossary On
Versions: 1 2 3 4 5 6 7 8 9 10 11 12 13 14 15 16 17 18 19 20 21 22 23 24 25 26 27 28 29 30 31 32 33 34 35 36 37 38 39 40 41 42 43 44 45 46 47 48 49 50
000
ASUS43 KMPX 231910
RWRMN
WEATHER ROUNDUP FOR MINNESOTA
NATIONAL WEATHER SERVICE TWIN CITIES/CHANHASSEN MN
200 PM CDT TUE SEP 23 2014


NOTE: "FAIR" INDICATES FEW OR NO CLOUDS BELOW 12,000 FEET WITH NO
SIGNIFICANT WEATHER AND/OR OBSTRUCTIONS TO VISIBILITY. N/A MEANS
CURRENT SKY AND/OR WEATHER CONDITIONS ARE NOT AVAILABLE.

MNZ060>063-068>070-232000-
   Twin Cities Metro

CITY           SKY/WX    TMP DP  RH WIND       PRES   REMARKS
TWIN CITIES    PTSUNNY   71  50  47 S15G22    30.19F
ST PAUL        MOSUNNY   73  51  46 S13       30.19F
CRYSTAL        MOSUNNY   74  51  44 S15       30.17F
BLAINE         PTSUNNY  N/A N/A N/A S14G23    30.19
LAKEVILLE      PTSUNNY   70  52  52 S8G16     30.20F
EDEN PRAIRIE   MOSUNNY   75  53  46 S16G22    30.17F
SOUTH ST PAUL  MOSUNNY   74  49  41 S12       30.19F
LAKE ELMO      FAIR      73  52  46 S13       30.21F
$$
MNZ001>005-007-008-013>017-022>024-027-028-232000-
   Northwest Minnesota

CITY           SKY/WX    TMP DP  RH WIND       PRES   REMARKS
BEMIDJI        SUNNY     74  50  43 S16G24    30.10S
HALLOCK        SUNNY     75  55  50 S17G23    29.98F
ROSEAU         SUNNY     79  57  47 S17       30.02F
WARROAD        SUNNY     77  57  50 S10G17    30.04F
THIEF RVR FALL SUNNY     75  55  50 S17G26    30.03F
CROOKSTON      SUNNY     75  57  53 S18       30.03F
FOSSTON        MOSUNNY   73  52  46 S15G24    30.07S
DETROIT LAKES  MOSUNNY   72  52  49 S18G24    30.09F
MOORHEAD       MOSUNNY   75  52  43 S16G29    30.05F
PARK RAPIDS    PTSUNNY   72  50  45 S22       30.12S
MAHNOMEN       FAIR      70  53  54 S13G21    30.07F
$$
MNZ006-009>011-018-025>026-232000-
   North Central Minnesota

CITY           SKY/WX    TMP DP  RH WIND       PRES   REMARKS
BAUDETTE       SUNNY     75  53  46 S17       30.06F
FLAG ISLAND    SUNNY     64  54  68 S13       30.04S
INTL FALLS     SUNNY     73  48  41 S8G17     30.11F
WASKISH        SUNNY     75  54  46 S9        30.09S
BIG FORK       SUNNY     73  52  46 S15       30.13F
LONGVILLE      SUNNY     73  52  46 S15G21    30.13F
GRAND RAPIDS   SUNNY     72  48  43 S17G26    30.15F
CRANE LAKE     SUNNY     73  46  38 S9G16     30.15F
ORR            SUNNY     73  46  38 S12       30.12F
COOK           SUNNY     72  48  43 S8G18     30.15F
WALKER         FAIR      73  47  39 S15       30.12S
$$
MNZ012-019>021-037-232000-
   Northeast Minnesota

CITY           SKY/WX    TMP DP  RH WIND       PRES   REMARKS
DULUTH         SUNNY     73  50  44 SW14      30.19F
ELY            SUNNY     73  46  38 S13       30.16F
HIBBING        SUNNY     73  49  42 VRB6G18   30.16F
EVELETH        SUNNY     72  50  46 SW13      30.18S
DULUTH HARBOR  SUNNY     73  54  49 S14       30.18F
TWO HARBORS    SUNNY     70  54  56 SW12G17   30.18F
SILVER BAY     SUNNY     70  54  56 S15       30.18S
GRAND MARAIS     N/A     56  52  86 SW8       30.19F
G MARAIS ARPRT SUNNY     70  46  43 S7        30.22F
$$
MNZ029>031-032-039>041-046>048-054>057-064-232000-
   West Central Minnesota

CITY           SKY/WX    TMP DP  RH WIND       PRES   REMARKS
FERGUS FALLS   SUNNY     72  48  43 S15G24    30.09F
WHEATON        PTSUNNY   63  48  59 S12G20    30.10F
MORRIS         PTSUNNY   64  52  63 S18G25    30.11F
ALEXANDRIA     MOSUNNY   70  54  56 S16G22    30.14F
ELBOW LAKE     FAIR      67  53  61 S18G26    30.11S
WADENA         PTSUNNY   72  54  53 S12G23    30.11F
GLENWOOD       PTSUNNY   66  54  63 S13       30.15S
APPLETON       LGT RAIN  61  54  77 S7        30.12F
BENSON         CLOUDY    66  54  63 SW13      30.13F
ORTONVILLE     RAIN      59  52  77 S10G20    30.11F
MADISON        LGT RAIN  61  55  82 SE7       30.11F
WILLMAR        FAIR      68  52  56 S6        30.16F
$$
MNZ033>034-036-042>043-049>051-058-059-232000-
   Central Minnesota

CITY           SKY/WX    TMP DP  RH WIND       PRES   REMARKS
ST CLOUD       MOSUNNY   73  53  49 S14       30.16F
SAUK CENTRE    FAIR      72  53  51 S17       30.14F
PAYNESVILLE    PTSUNNY   67  52  59 SE9       30.16F
AITKIN         MOSUNNY   73  54  49 S12       30.15F
PINE RIVER     MOSUNNY   73  54  49 S16G23    30.16F
BRAINERD       MOSUNNY   72  51  47 S16       30.15F
STAPLES        PTSUNNY   73  50  43 S18G25    30.13F
LONG PRAIRIE   FAIR      72  52  49 S14G22    30.14F
LITTLE FALLS   MOSUNNY   72  50  46 S12G21    30.15F
LITCHFIELD     PTSUNNY   72  55  56 SE8       30.16F
BUFFALO        MOSUNNY   73  50  45 S9G17     30.18F
MAPLE LAKE     MOSUNNY   74  56  54 S6        30.17F
$$
MNZ037-044-045-052-053-232000-
   East Central Minnesota

CITY           SKY/WX    TMP DP  RH WIND       PRES   REMARKS
PRINCETON      MOSUNNY   75  54  46 S13G18    30.18F
MORA           MOSUNNY   70  50  49 S13       30.19F
CAMBRIDGE      MOSUNNY   75  55  50 SW9       30.16F
RUSH CITY      MOSUNNY   71  51  47 S13       30.19F
MOOSE LAKE     SUNNY     72  50  46 S10G18    30.17F
HINCKLEY       FAIR      72  54  53 S12G17    30.18F
CLOQUET        SUNNY     72  48  43 SW10G20   30.19F
MCGREGOR       SUNNY     72  50  46 S9G17     30.17F
$$
MNZ071>073-080-081-089-090-097-098-232000-
   Southwest Minnesota

CITY           SKY/WX    TMP DP  RH WIND       PRES   REMARKS
MONTEVIDEO     DRIZZLE   63  52  67 SW5       30.14F
GRANITE FALLS  CLOUDY    64  52  64 SE7       30.15F
CANBY          LGT RAIN  58  55  91 SE7       30.12F
MARSHALL       CLOUDY    61  54  77 S14       30.12F
REDWOOD FALLS  CLOUDY    69  53  56 S17G23    30.13F
OLIVIA         CLOUDY    70  54  56 S12       30.14F
PIPESTONE      CLOUDY    61  55  82 SE14      30.10F
WINDOM         CLOUDY    66  52  59 S12G18    30.15F
WORTHINGTON    CLOUDY    63  54  72 S13G20    30.16F
JACKSON        CLOUDY    68  50  52 S15G21    30.17F
TRACY          CLOUDY    63  58  84 SE8       30.14S
SLAYTON        CLOUDY    61  57  86 SE14      30.14F
$$
MNZ065>067-074>077-082>085-091>093-232000-
   South Central Minnesota

CITY           SKY/WX    TMP DP  RH WIND       PRES   REMARKS
MANKATO        PTSUNNY   72  48  43 S15       30.17F
NEW ULM        CLOUDY    70  54  56 S15G21    30.16F
ST JAMES       CLOUDY    73  52  46 SE10G21   30.16F
FAIRMONT       PTSUNNY   72  48  43 S18G24    30.16F
GLENCOE        PTSUNNY   73  51  44 SE12      30.16F
FARIBAULT      PTSUNNY   75  46  35 SE15      30.21F
OWATONNA       PTSUNNY   73  50  43 S13G18    30.20F
WASECA         PTSUNNY   72  43  35 SE12G18   30.21F
ALBERT LEA     MOSUNNY   72  48  43 S14       30.20F
$$
MNZ078>079-086>088-094>096-232000-
   Southeast Minnesota

CITY           SKY/WX    TMP DP  RH WIND       PRES   REMARKS
ROCHESTER      PTSUNNY   70  50  49 S14       30.25F
RED WING       MOSUNNY   75  48  38 S8        30.20F
STANTON        PTSUNNY   71  51  49 S10       30.20F
DODGE CENTER   PTSUNNY   70  52  52 S14G20    30.23F
WINONA         MOSUNNY   73  52  46 S6        30.24F
AUSTIN         PTSUNNY   72  52  49 S12       30.22F
PRESTON        MOSUNNY   70  55  59 S10G16    30.26F
$$
ABBREVIATIONS USED IN REMARKS
   TC - TEMPERATURES IN CELSIUS
  WCI - WIND CHILL INDEX
   HX - HEAT INDEX
  VSB - VISIBILITY
$$



USA.gov is the U.S. government's official web portal to all federal, state and local government web resources and services.